Theta_e
316 315 315 316 315 315 315 315 315 315 315 315 316 316 316 316 316 317 317 317 317 317 317 318 316 315 317 321 323 325 326 324 324 324 324 324 327 327 325 326 328 329 330 330
317 316 316 316 317 317 316 315 315 315 316 314 316 316 316 316 317 317 317 317 318 317 317 318 318 316 314 316 320 320 320 320 320 320 320 320 320 320 320 323 327 328 329 329
316 315 315 316 315 315 315 315 315 315 316 315 316 317 317 317 317 317 317 317 317 317 317 318 318 316 314 313 315 317 317 316 317 317 317 317 317 316 315 314 323 326 328 328
316 315 314 315 315 315 314 314 315 315 315 314 315 316 315 315 316 317 317 317 317 318 318 317 317 317 315 314 313 313 315 315 316 316 316 316 314 313 312 313 317 323 324 324
314 315 315 314 314 314 315 315 315 315 317 317 316 316 315 316 316 316 316 319 319 319 319 318 317 316 315 313 313 312 313 313 314 316 315 315 312 313 315 315 313 319 321 319
315 312 314 314 313 314 314 315 316 316 316 317 315 316 315 316 317 317 317 317 317 316 316 315 314 313 312 312 311 311 312 312 313 314 315 314 313 314 316 315 312 316 317 317
314 314 313 313 314 313 315 315 315 317 320 318 315 317 316 316 316 316 316 317 317 315 315 315 313 310 310 310 310 310 311 311 312 313 314 313 313 314 315 315 311 311 313 315
314 315 314 313 315 315 316 315 319 326 320 318 314 316 315 316 316 316 316 317 317 315 314 314 314 312 309 308 309 309 309 310 311 312 312 312 312 314 314 312 310 308 311 314
314 315 313 313 314 314 315 317 316 318 318 317 315 316 316 316 315 315 316 316 316 317 316 315 314 310 309 308 308 309 309 310 310 311 311 310 311 312 313 311 310 308 308 310
315 317 313 311 312 313 314 314 315 315 325 322 316 317 316 318 317 317 316 316 316 316 316 314 311 309 308 308 308 308 309 309 309 310 310 309 310 310 311 309 307 306 308 309
314 315 315 312 313 314 313 314 314 315 317 321 320 317 317 319 318 318 318 316 315 315 316 314 311 308 308 307 307 308 308 308 308 309 308 308 308 309 308 308 306 305 306 309
315 315 319 316 314 313 313 314 314 317 318 316 317 318 318 318 316 316 316 315 314 312 314 313 310 308 307 307 307 308 308 308 308 308 307 307 306 306 305 305 303 303 304 306
315 317 321 322 316 313 313 314 314 315 317 324 321 320 315 314 316 316 316 316 315 312 311 310 309 309 309 308 307 307 308 308 308 307 306 305 305 304 303 301 300 302 302 302
311 313 320 324 322 320 316 315 315 316 319 318 319 318 317 317 317 317 316 316 316 314 313 312 312 311 309 308 308 307 307 307 307 305 304 304 303 303 300 299 299 302 302 300
312 316 315 314 315 315 315 319 318 316 316 318 318 318 317 317 317 317 317 317 316 315 314 313 312 312 310 308 307 306 305 305 304 304 302 302 302 301 299 299 298 300 300 298
312 316 315 314 313 313 314 315 315 317 319 316 317 318 316 316 317 317 317 316 315 315 315 315 312 310 309 308 306 305 304 303 302 303 302 301 301 299 298 297 297 298 297 295
312 311 315 314 314 315 316 315 315 316 318 317 318 317 316 317 317 317 317 316 316 315 315 315 314 314 309 307 304 303 303 301 300 300 300 300 299 298 297 296 295 294 293 292
312 313 315 313 313 314 312 314 316 318 318 319 318 317 317 317 316 317 316 316 315 314 313 313 313 311 309 306 305 303 301 300 299 298 297 297 297 296 295 294 293 292 291 290
307 311 312 313 313 312 312 314 315 318 318 317 318 318 317 316 315 316 316 315 315 315 311 307 306 304 303 302 301 300 298 296 296 295 295 295 295 294 293 292 291 290 289 288
306 307 310 311 312 311 309 309 310 314 316 307 306 307 306 306 318 318 310 308 308 305 303 302 300 298 298 297 296 296 295 294 293 293 293 293 292 292 292 291 290 289 288 287
308 310 310 311 312 311 309 306 310 312 313 302 304 304 304 305 306 304 306 305 302 299 298 296 296 294 293 293 293 293 292 292 292 291 291 290 290 290 290 289 288 287 286 285
305 308 311 310 311 311 305 307 312 305 302 304 304 303 303 303 302 301 300 302 300 298 296 293 292 291 290 291 291 291 290 289 289 289 289 288 288 288 288 287 286 286 285 284
302 302 305 308 308 305 304 304 304 303 302 301 302 302 301 299 300 298 297 298 297 293 291 289 290 289 289 289 290 290 287 288 288 288 287 286 286 286 286 286 285 284 283 283
304 304 304 304 305 304 305 304 302 302 302 300 301 301 299 297 297 296 295 294 294 292 290 288 288 289 288 287 288 288 287 287 287 286 286 285 285 285 284 284 284 284 284 284
301 301 303 303 302 302 301 301 302 303 301 300 300 299 297 296 295 298 294 292 291 290 289 288 288 287 286 286 286 286 286 287 287 286 285 285 285 285 284 284 284 284 284 284
299 299 299 300 299 300 299 299 300 299 299 299 299 299 297 295 296 294 292 291 290 290 289 288 287 286 285 285 284 286 286 286 286 286 286 285 285 285 284 284 284 284 284 284
Wind_Speed
7 9 11 15 16 14 5 7 9 8 6 3 13 19 19 17 19 20 19 19 20 20 19 21 23 27 27 29 30 32 30 28 26 26 24 24 25 26 26 27 31 29 30 30
5 15 14 4 5 7 9 13 15 14 2 3 14 22 20 18 22 21 20 22 21 20 18 17 22 24 29 31 32 31 31 29 29 25 24 22 22 20 22 34 34 33 32 32
17 4 12 7 7 11 14 16 14 15 4 13 13 16 18 15 16 16 19 22 22 20 18 16 18 25 25 28 30 33 33 31 30 27 22 20 15 16 17 24 33 36 33 32
13 12 4 11 16 12 16 14 14 13 8 8 1 10 17 20 19 15 16 19 20 17 14 13 14 19 25 27 29 30 30 31 30 30 26 26 23 20 20 21 33 35 34 33
4 9 13 14 11 10 4 3 6 7 9 12 14 8 9 13 13 14 17 15 15 12 9 10 11 17 20 21 25 27 28 29 29 29 29 27 24 20 16 18 24 31 33 33
4 1 5 7 4 8 10 7 4 1 4 9 14 15 11 14 15 9 10 10 2 3 3 3 4 4 11 12 17 19 23 25 27 27 28 26 24 22 20 20 23 29 34 35
11 10 5 4 6 4 10 7 4 5 6 11 4 8 14 3 12 12 13 12 3 3 4 1 3 4 6 9 12 16 19 22 24 26 26 27 25 23 22 21 20 29 35 36
15 12 16 15 16 10 15 14 7 7 8 12 4 10 6 5 5 10 13 14 9 6 7 8 5 5 8 10 13 15 18 20 23 24 25 25 25 25 25 24 22 24 35 38
12 12 4 2 10 15 8 10 11 11 2 5 9 19 20 12 12 15 13 14 13 8 8 7 6 7 8 10 12 13 14 17 20 23 23 25 25 25 23 22 24 23 24 28
9 16 5 4 2 9 9 4 7 7 6 10 13 16 14 9 12 10 9 11 12 9 6 4 5 6 6 8 9 11 13 15 17 20 22 23 25 25 24 23 24 26 28 29
11 10 4 6 12 15 8 9 7 5 8 6 11 11 5 7 6 5 8 4 5 7 5 5 4 5 6 8 9 10 12 13 15 18 19 20 22 23 23 23 22 24 27 31
11 5 13 18 3 7 12 19 22 9 8 8 12 19 4 6 4 4 6 4 4 3 4 5 5 7 7 7 7 8 9 12 15 16 18 21 21 21 22 22 21 25 26 27
4 3 3 3 6 3 7 15 14 20 3 12 12 14 0 5 1 1 3 3 4 2 2 3 4 4 4 5 7 9 12 14 14 15 17 20 21 22 22 23 25 26 25 25
8 1 5 8 3 9 6 15 19 16 11 25 16 30 19 14 13 6 5 6 3 1 5 5 4 4 4 9 13 15 15 15 15 16 18 20 21 21 22 23 26 27 27 26
6 5 4 10 9 4 6 13 16 21 25 18 28 22 33 16 17 16 14 13 12 10 8 9 9 8 12 13 15 15 14 14 15 17 19 20 20 21 22 24 25 26 26 27
9 4 7 7 12 13 13 17 19 22 26 24 30 27 25 19 17 16 16 15 17 17 14 11 10 10 11 16 16 14 14 16 16 18 20 18 20 23 25 24 25 25 26 26
5 3 3 16 3 8 10 19 20 21 23 22 22 29 15 17 16 13 16 18 19 18 18 15 13 9 13 15 16 17 18 18 21 22 22 22 23 25 25 25 25 24 25 24
6 4 3 12 3 14 13 7 11 17 19 20 22 25 20 20 23 19 19 19 19 18 16 14 10 12 7 8 11 13 15 18 20 21 22 23 23 25 24 25 25 24 24 25
15 9 6 7 11 14 17 10 7 8 13 12 14 19 19 20 16 21 18 14 18 17 8 3 3 4 6 7 8 9 10 11 12 15 18 20 22 22 21 23 23 23 22 22
11 13 11 12 14 11 16 8 6 8 15 6 10 12 13 11 7 12 16 8 8 6 7 7 4 5 5 5 6 6 6 7 7 8 10 13 15 19 21 21 20 20 20 20
3 4 14 14 12 8 15 5 1 10 4 3 6 8 10 7 6 16 15 12 9 7 8 8 7 5 3 2 3 4 4 3 3 5 7 8 9 13 15 15 15 16 16 16
6 4 5 6 6 9 3 3 4 3 5 4 8 9 7 9 11 8 12 9 9 10 9 9 8 6 4 2 4 7 7 4 6 7 7 7 8 9 11 12 13 13 14 15
9 11 7 4 2 3 2 5 7 5 8 7 8 11 8 10 7 7 6 7 7 11 11 10 8 5 4 3 4 9 6 8 9 10 10 9 7 7 9 11 12 11 11 11
5 4 4 1 6 10 8 8 8 9 10 10 9 9 9 13 9 8 5 4 3 3 8 6 5 7 9 7 3 8 9 10 12 13 12 12 11 10 9 9 11 11 11 10
8 5 10 12 15 9 14 13 14 7 8 11 11 9 11 11 11 7 3 4 4 3 2 1 4 4 5 6 3 7 9 11 14 15 14 12 11 9 10 7 8 7 7 9
14 18 12 13 16 11 13 16 7 7 13 13 9 11 9 10 14 6 5 4 3 4 4 4 4 3 5 5 2 5 8 8 13 15 13 12 12 10 9 8 7 4 3 6
Wind_Direction
203 219 215 222 225 251 282 280 264 264 135 263 263 273 271 273 271 267 266 263 261 254 250 229 225 216 213 213 211 211 209 209 203 203 204 207 212 217 220 219 222 221 216 208
186 228 232 266 282 204 236 258 260 271 266 235 280 281 279 271 263 259 262 264 262 264 253 230 219 213 209 210 209 209 210 207 206 203 206 211 216 223 228 228 224 223 223 220
227 233 233 186 207 220 236 243 256 261 267 239 280 275 268 253 247 262 261 260 263 263 263 251 213 211 214 215 210 208 207 205 204 204 203 206 210 213 215 224 220 221 221 219
245 237 172 211 233 219 250 249 253 268 283 275 197 286 289 290 273 244 251 258 262 263 255 246 253 212 211 219 217 214 208 204 203 200 200 200 200 210 221 220 218 217 219 219
200 191 207 218 220 201 248 37 225 250 258 290 243 262 261 257 260 250 254 255 258 264 271 262 241 234 220 218 213 212 209 206 204 201 202 201 208 218 218 209 215 214 217 219
280 6 217 225 69 206 135 119 108 203 278 264 256 242 261 249 250 259 256 264 296 232 257 256 247 253 224 219 205 208 210 209 206 203 206 208 213 214 208 200 211 214 221 221
209 218 173 171 123 126 196 177 224 236 203 253 8 280 245 252 297 278 268 280 195 216 257 228 176 182 199 196 201 204 207 210 209 206 210 213 218 218 217 208 205 215 215 216
215 224 188 188 215 183 198 202 211 231 238 266 95 239 253 211 267 271 266 269 283 245 248 252 213 183 180 187 194 202 202 206 209 211 213 216 217 218 215 213 211 214 217 219
221 231 215 164 208 204 173 218 250 276 350 286 254 265 274 231 237 248 256 259 269 273 254 246 215 194 182 185 190 197 204 208 210 213 214 219 218 218 216 216 216 217 215 220
244 262 165 138 206 244 227 195 201 216 232 240 258 262 262 274 256 269 238 253 283 277 246 185 168 173 175 181 186 190 202 208 214 214 216 219 218 218 218 217 214 217 220 220
221 233 148 161 205 200 190 215 221 233 225 242 261 261 334 43 36 321 318 321 285 291 233 170 155 160 172 178 187 197 205 210 213 216 221 224 224 222 220 222 217 222 224 226
224 259 241 230 172 255 253 221 211 213 205 235 260 267 136 99 60 356 328 316 336 321 229 150 159 171 182 185 197 210 217 219 219 217 219 221 223 222 222 221 220 224 226 230
37 210 222 269 220 204 240 228 240 231 240 223 220 255 186 115 156 51 288 327 336 341 196 202 190 182 199 214 220 222 220 223 220 219 221 223 223 221 220 220 223 228 230 233
81 287 257 242 66 334 228 237 228 232 222 238 233 256 252 248 280 285 251 227 260 234 226 246 241 243 234 228 226 222 221 219 219 219 221 222 221 219 219 225 230 232 234 235
168 211 216 266 281 322 290 292 292 226 236 237 256 256 266 267 271 285 274 273 275 262 240 252 252 237 231 233 237 236 228 222 217 222 223 227 223 220 219 224 229 232 234 236
178 248 203 257 264 262 267 262 260 267 269 246 252 257 265 275 281 282 281 275 280 285 286 259 242 240 232 247 250 234 229 231 221 222 227 228 222 219 221 225 228 228 229 230
163 195 189 274 257 291 266 254 247 244 242 244 248 258 275 283 283 280 281 275 277 281 278 278 276 259 228 230 233 233 236 233 227 225 228 227 222 224 225 225 227 226 228 226
245 200 228 275 298 263 257 230 241 243 255 250 260 270 281 281 279 284 275 276 274 269 276 276 272 272 254 245 237 236 228 220 219 224 224 222 218 220 222 221 223 224 225 226
222 228 247 244 248 278 276 231 199 213 258 246 249 263 269 271 287 279 278 275 267 271 282 319 320 300 298 289 279 260 246 226 219 224 225 224 221 218 216 218 222 222 221 219
222 227 224 239 252 258 264 263 323 234 261 42 358 345 350 356 284 280 359 337 322 328 321 304 281 256 243 258 274 245 226 211 221 227 229 227 223 220 213 217 212 218 220 221
165 198 221 238 248 253 275 8 287 255 288 347 324 315 320 327 300 308 319 309 331 334 329 323 311 305 296 277 169 163 171 177 198 192 186 199 211 216 214 210 202 207 204 207
223 219 207 219 243 250 352 62 222 345 316 274 284 284 282 282 295 318 334 326 330 327 337 329 325 333 343 39 148 136 127 141 144 150 149 153 172 184 188 190 187 190 193 189
239 228 246 246 268 184 208 147 188 201 246 257 249 287 277 286 279 312 335 337 341 326 329 341 337 334 2 22 139 127 123 132 128 126 116 118 132 147 166 165 166 165 176 167
244 146 227 218 226 243 225 246 257 230 233 266 275 277 278 277 272 256 234 234 263 326 322 348 5 1 355 357 85 121 128 129 125 118 117 121 126 128 139 146 152 155 163 169
249 207 238 247 254 259 257 261 268 234 254 267 268 246 247 259 256 259 252 221 253 227 195 121 104 77 25 355 51 106 122 133 126 123 121 114 119 122 128 129 150 155 180 192
242 246 246 252 264 264 273 289 214 242 264 262 266 277 255 241 259 228 227 229 233 248 195 189 154 148 146 157 259 97 111 133 130 124 126 130 131 129 131 130 121 140 189 209